User: anonymous   Login
Location: Norwich
(52.6280°N, 1.3030°E)
Time: 10:01:59
(UTC+00:00)
Language:

ATLAS 5 CENTAUR R/B - Orbit

View from above orbital plane
View from above orbital plane
View from above satellite
View from above satellite

Ground track
Ground track

The orbit data is extracted from the following two-line orbital elements,

1 32379U 07060B   14345.76541141 0.00003600  00000-0  16566-2 0    01
2 32379  60.9195 337.6170 5182298 201.8979 124.0118  5.23638000    08
Epoch (UTC): 11 December 2014 18:22:11
Eccentricity: 0.5182298
inclination: 60.9195°
perigee height: 370 km
apogee height: 14889 km
right ascension of ascending node: 337.6170°
argument of perigee: 201.8979°
revolutions per day: 5.23638000
mean anomaly at epoch: 124.0118°
orbit number at epoch: 0

The dashed part of the orbit path shows where the satellite is in the earth's shadow,  

DLR